Other Public Products
Issued by NWS Grand Forks, ND

Home | Current Version | Previous Version | Text Only | Print | Product List | Glossary On
Versions: 1 2 3 4 5 6 7 8 9 10 11 12 13 14 15 16 17 18 19 20 21 22 23 24 25 26 27 28 29 30 31 32 33 34 35 36 37 38 39 40 41 42 43 44 45 46 47 48 49 50
000
FPUS83 KFGF 310931
OPUFGF
PRAIRIE TO PINES WEATHER ROUNDUP
NATIONAL WEATHER SERVICE EASTERN NORTH DAKOTA/GRAND FORKS ND
400 AM CDT MON AUG 31 2015

 **SATELLITE DATA USED TO AUGMENT SKY COVER AT AUTOMATED STATIONS**
 *****  WEATHER ACROSS EASTERN NORTH DAKOTA  *****

CITY           SKY/WX    TMP DP  RH WIND       PRES   REMARKS
GRAND FORKS    CLEAR     67  63  87 S13       29.64S
GRAND FORKS AF CLEAR     68  65  91 S9        29.64S
GRAND CITY NWS   N/A     66 N/A N/A S10         N/A
BUXTON         NOT AVBL
DEVILS LAKE    CLOUDY    70  63  78 CALM      29.61F
FARGO          CLEAR     67  60  78 S16G24    29.68F
WAHPETON ARPT  SUNNY     63  57  82 S14       29.73F
$$

 *****  WEATHER ACROSS CENTRAL AND WESTERN NORTH DAKOTA  *****

CITY           SKY/WX    TMP DP  RH WIND       PRES   REMARKS
JAMESTOWN      PTCLDY    67  64  90 S18       29.62F
BISMARCK       CLOUDY    70  60  70 N12       29.63R HAZE
MINOT          CLOUDY    64  54  69 NW3       29.66F
MINOT AFB      CLOUDY    64  60  88 NW7       29.66F
GARRISON         N/A     67  54  63 N10       29.63F
WILLISTON      CLOUDY    63  56  78 NW14      29.73S
DICKINSON      CLOUDY    63  56  78 N9        29.71F
HETTINGER      CLOUDY    66  50  56 NW13      29.76R
$$

 *****  OTHER OBSERVATIONS NORTHEAST NORTH DAKOTA  *****

CITY           SKY/WX    TMP DP  RH WIND       PRES   REMARKS
WALHALLA       FAIR      66  66 100 MISG      29.63R
LANGDON        FAIR      66  66 100 NW9       29.64F
CAVALIER       FAIR      68  66  94 S6        29.62R
GRAFTON        FAIR      68  68 100 S13G20    29.62F
CANDO          FAIR      63  61  94 N9        29.64F
FORT TOTTEN      N/A     70  69  95 S3        29.95S
ROLLA          PTSUNNY   63  59  88 NW12G17   29.67F
RUGBY          FAIR      64  59  82 N14       29.63F FOG
 ***** THE ABOVE OBSERVATIONS ARE NON NWS ARE NOT QUALITY
        CONTROLLED AND MAY MIS-REPORT RAIN FOR SNOW...
$$

 *****  OTHER OBSERVATIONS SOUTHEAST NORTH DAKOTA *****

CITY           SKY/WX    TMP DP  RH WIND       PRES   REMARKS
COOPERSTOWN    NOT AVBL
VALLEY CITY    PTSUNNY   68  68 100 S16G22    29.65F
OAKES            N/A     68  68 100 S20G29    29.68F
GWINNER        FAIR     N/A N/A N/A S17       29.69S
SHEYENNE NWR     N/A     61  60  95 SE3       29.95S
BUFFALO        NOT AVBL
WYNDMERE         N/A     64  61  88 S6          N/A
 ***** THE ABOVE OBSERVATIONS ARE NON NWS ARE NOT QUALITY
       CONTROLLED AND MAY MIS-REPORT RAIN FOR SNOW...
$$

  *****  WEATHER ACROSS NORTHERN MINNESOTA  *****

CITY           SKY/WX    TMP DP  RH WIND       PRES   REMARKS
FLAG ISLAND    CLEAR     68  64  88 S12       29.67S
WARROAD        CLEAR     68  63  83 S8        29.68F
ROSEAU         CLEAR     68  63  83 S12       29.67F
HALLOCK        CLEAR     70  66  88 S15       29.62S
THF RVR FALLS  CLEAR    N/A N/A N/A S8        29.68F
HALSTAD        NOT AVBL
FOSSTON        CLEAR     66  55  68 S10       29.72F
BAUDETTE       CLEAR     67  62  84 S8        29.71F
WASKISH        PTCLDY    66  61  82 S8        29.74S
CROOKSTON      CLEAR     68  61  77 S14       29.68F
$$
  *****  WEATHER ACROSS CENTRAL AND WEST MINNESOTA  *****

CITY           SKY/WX    TMP DP  RH WIND       PRES   REMARKS
BEMIDJI        CLEAR     65  60  84 S13       29.77F
PARK RAPIDS    PTCLDY    64  60  87 S10       29.80F
WADENA         CLEAR     63  61  94 S5        29.81F
DETROIT LAKES  CLEAR     66  59  77 S14       29.77F
MOORHEAD       CLEAR     66  61  82 S13       29.71S
FERGUS FALLS   CLEAR     64  61  88 S15       29.76F
ELBOW LAKE     FAIR      64  61  93 S18       29.78F
MORRIS MN      CLEAR     63  63 100 SE12      29.80F FOG
STAPLES        CLEAR     63  61  94 S13       29.83S
WHEATON        CLEAR     63  59  88 SE12G20   29.76F
$$
  *****  WEATHER ELSEWHERE ACROSS MINNESOTA  *****

CITY           SKY/WX    TMP DP  RH WIND       PRES   REMARKS
DULUTH         CLOUDY    66  63  90 SW12      29.89S
INTRNTL FALLS  PTCLDY    66  63  90 VRB5      29.76F
ELY            CLEAR     64  63  94 S6        29.86S
CLOQUET        CLOUDY    66  63  88 S7        29.89F
BRAINERD       PTCLDY    64  63  96 S10       29.85F
HIBBING        CLOUDY    65  63  93 VRB5      29.86S
ALEXANDRIA     CLEAR     64  62  93 S10       29.85S
SAINT CLOUD    CLOUDY    65  64  97 S7        29.88F FOG
MINNEAPOLIS    MOCLDY    64  62  93 SE7       29.93S
$$

  *****  WEATHER ACROSS SOUTH DAKOTA  *****

CITY           SKY/WX    TMP DP  RH WIND       PRES   REMARKS
SIOUX FALLS    CLEAR     65  63  93 S8        29.89F
BROOKINGS      CLEAR     64  61  88 S14G20    29.88F
WATERTOWN      CLEAR     66  62  87 S13       29.82F
HURON          CLEAR     66  64  93 S14       29.77F
SISSETON         N/A     72  59  63 S13G21    29.72F
ABERDEEN       CLEAR     68  63  84 S18G29    29.71F
MITCHELL       CLEAR     67  64  90 S9        29.84R
PIERRE         PTCLDY    70  59  68 SE14      29.68F
MOBRIDGE       CLOUDY    74  59  59 S12       29.61S
RAPID CITY     CLOUDY    72  51  47 SW6       29.78R
$$

  *****  SOME WEATHER IN NEARBY STATES *****

CITY           SKY/WX    TMP DP  RH WIND       PRES   REMARKS
GLASGOW MT     MOCLDY    55  52  89 W6        29.78S
GREAT FALLS MT CLEAR     53  31  42 SW14G26   29.91F
CHEYENNE WY    CLOUDY    71  45  39 W20G29    30.06S
SCOTTSBLUFF NE MOCLDY    68  55  63 CALM      29.91R
OMAHA NE       PTCLDY    66  66 100 SE5       29.95S
DES MOINES IA  CLEAR     69  65  86 SE6       29.98R
DAVENPORT IA   CLEAR     62  61  96 SE6       30.02S FOG
CHICAGO IL     PTCLDY    62  62 100 CALM      30.03S FOG
EAU CLAIRE WI  CLEAR     61  59  93 S3        29.97S
LA CROSSE WI   CLOUDY    64  63  96 SE7       29.99F FOG
$$

  *****  SOME NATIONAL WEATHER *****

CITY           SKY/WX    TMP DP  RH WIND       PRES   REMARKS
LA GUARDIA NY  CLOUDY    78  66  66 SW8       30.00S
RALEIGH NC     LGT RAIN  69  67  93 CALM      30.12R
ATLANTA GA     DRIZZLE   66  64  94 E10       30.09R FOG
NEW ORLEANS LA PTCLDY    76  69  79 CALM      30.00S
OKLAHOMA CITY  PTCLDY    69  65  86 S7        29.95R
ALBUQUERQUE NM CLEAR     72  49  44 W6        30.13F
SALT LAKE CITY MOCLDY    68  45  43 NW5       30.01R
LOS ANGELES CA PTCLDY    70  64  81 CALM      29.84F
BOISE ID       CLEAR     58  43  57 CALM      30.05R
SEATTLE WA     CLOUDY    62  50  64 S13       30.00S
$$

*** WEATHER ACROSS MANITOBA...SASKATCHEWAN AND ONTARIO ***
                ***ONTARIO***

CITY           SKY/WX    TMP DP  RH WIND       PRES   REMARKS
GERALDTON      CLOUDY    61  61 100 SE5       29.89  FOG
THUNDER BAY    PTCLDY    57  55  94 NE6       29.86R
SIOUX LOOKOUT  MOCLDY    68  66  94 S8        29.74F
TORONTO        PTCLDY    64  61  88 W5        30.00S
BIG TROUT LK   CLOUDY    50  48  93 SE12G20   29.83S
PICKLE LAKE    NOT AVBL
DRYDEN         CLEAR     68  64  88 S10       29.74F
KENORA         PTCLDY    68  64  88 S8        29.69F
$$
                *** MANITOBA***

CITY           SKY/WX    TMP DP  RH WIND       PRES   REMARKS
BRANDON        LGT RAIN  63  57  82 SW13      29.70R
DAUPHIN        CLEAR     63  55  77 SW7       29.59F
ISLAND LAKE    MOCLDY    63  57  82 SE14G24   29.55F
PILOT MOUND      N/A     64  61  88 W6          N/A
THE PAS        PTCLDY    59  59 100 SE8       29.51F
THOMPSON       CLOUDY    55  55 100 VRB2      29.59S
WINNIPEG       MOCLDY    70  68  94 SW10      29.61R
LYNN LAKE      CLOUDY    57  57 100 MISG      29.51F FOG
CHURCHILL      LGT RAIN  46  45  93 SE16G24   29.80R
$$
                ***SASKATCHEWAN***

CITY           SKY/WX    TMP DP  RH WIND       PRES   REMARKS
ESTEVAN        LGT RAIN  63  54  72 W9        29.72R
KINDERSLEY     PTCLDY    52  39  62 SW12G18   29.58R
LLOYDMINSTER   CLEAR     48  43  81 NW6       29.50R
PRINCE ALBERT  CLOUDY    57  46  67 SW9       29.52R
REGINA         LGT RAIN  59  54  82 W20       29.72R
YORKTON        CLOUDY    61  52  72 S7        29.60F


USA.gov is the U.S. government's official web portal to all federal, state and local government web resources and services.